{"data":{"norad_id":60355,"intl_designator":"2024-138A","name":"STARLINK-32285","alt_names":[],"object_type":"PAYLOAD","status":"ACTIVE","operator":null,"country":"US","launch_date":"2024-08-04","launch_site_code":"AFWTR","launch_vehicle":null,"mission":null,"orbit_class":"UNKNOWN","rcs_meters":null,"size_class":null,"mass_kg":null,"dimensions":null,"purposes":["comms"],"wikipedia_slug":null,"has_3d_model":false,"image_url":null,"decayed_at":null,"tle_current":{"epoch":"2026-09-21T21:27:47.153664Z","epoch_age_seconds":65110,"freshness":"FRESH","line1":"1 60355U 24138A   26264.89429576 -.00000070  00000+0  90686-5 0  9998","line2":"2 60355  53.1604 114.9748 0001537  90.7105 269.4074 15.34384964120712","mean_motion":15.34384964,"eccentricity":0.0001537,"inclination_deg":53.1604,"raan_deg":114.9748,"arg_perigee_deg":90.7105,"mean_anomaly_deg":269.4074,"bstar":9.0686e-6,"rev_number":12071,"period_min":93.848677729874,"perigee_km":461.69648671889,"apogee_km":463.7993747466,"semimajor_km":6840.8849307327,"source":"CELESTRAK","updated_at":"2026-09-22T09:00:49.223528Z"}}}